STARLINK-37132, 68233

Orbit data source: Space-Track

STARLINK-37132, 68233 is a payload satellite owned by SpaceX/Seattle (US) in LEO that was launched on Tue, 17 Mar 2026 UTC via an FALCON 9 launch vehicle from the Air Force Eastern Test Range (AFETR). Payload-class satellites include a variety of spacecraft equipped with specific instruments for various scientific and technological missions. These include communications satellites like Starlink; space stations such as the ISS; scientific satellites like the Hubble; Earth observation satellites from companies like Planet Labs, Umbra, and HawkEye 360; GPS; miniature CubeSats for education and research; and military/defense satellites.

Loading next visibility...
Identifier
68233, 2026-054B
Orbit
LEO
Country
Flag of USUS
Related business
Manufacturer
SpaceX/Seattle
Mission
Operational spacecraft
Bus & Motor
STARLINK V2MO, Unknown motor
Mass
575 kg wet, ~530 kg dry
Launch date (UTC)
2026-03-17 (2 months ago)
Launch vehicle
FALCON 9
Launch site
Air Force Eastern Test Range (AFETR)
Object type
Payload
Rocket body
Debris
Shape & HBR
Unknown shape, 17.7 m
Radar Cross Section
RCS unknown

Expand to show TLE details & history
Last TLE update: 8 hours ago

TLE from 8 hours ago
0 STARLINK-37132
1 68233U 26054B   26145.44918179  .00066844  00000-0  11971-2 0  9999
2 68233  53.1580 296.1029 0003069  77.2855 282.8497 15.49367602 10809
Epoch: 2026-05-25T10:46Z
TLE epoch observation values (Epoch: 2026-05-25T10:46:49.306Z)
Latitude
-0.00003°
Longitude
-108.63938°
Altitude
419.019 km
Speed
7.661 km/s
True Right ascension
19h 44m 24s
True Declination
0° 00' 00"
Sunlit
Object was in full shadow at epoch
Visualization orbit readout
Latitude
Unknown
Longitude
Unknown
Altitude
Unknown
Speed
Unknown
Apparent Right ascension
Unknown
Apparent Declination
Unknown
Sunlit
N/A
Visualization observer readout
Local Sidereal Time
03:53:20
Azimuth
Unknown
Elevation
Unknown
Doppler factor
Unknown
Orbital elements
Apogee altitude
420.92 km
Perigee altitude
416.748 km
Semi-major axis
6,796.971 km
Eccentricity
0.00031
Inclination
53.158°
RAAN
296.1029°
Arg. of periapsis
77.2855°
True anomaly
282.81541°
Mean anomaly
282.8497°
Eccentric anomaly
282.83256°
Mean motion
3.8732 °/min
Orbital period
92.95 mins
BSTAR
0.0011971
Loading maneuver chart data...
Computing Atmospheric mass density...
Loading historical data...
Loading historical data...
Loading historical data...
Loading historical data...
Loading historical data...
Loading historical data...
Loading historical data...

Documentation

Showing up to 5 results
|